Regional Weather Roundup
Issued by NWS

Home | Current Version | Previous Version | Graphics & Text | Print | Product List | Glossary On
Versions: 1 2 3 4 5 6 7 8 9 10 11 12 13 14 15 16 17 18 19 20 21 22 23 24 25 26 27 28 29 30 31 32 33 34 35 36 37 38 39 40 41 42 43 44 45 46 47 48 49 50
000
ASUS43 KMKX 231711
RWRWI

WISCONSIN REGIONAL WEATHER ROUNDUP
NATIONAL WEATHER SERVICE MILWAUKEE/SULLIVAN WI
1200 PM CDT SUN APR 23 2017

NOTE: "FAIR" INDICATES FEW OR NO CLOUDS BELOW 12,000 FEET WITH NO
SIGNIFICANT WEATHER AND/OR OBSTRUCTIONS TO VISIBILITY.

WIZ001-002-006>008-014>016-023>028-231800-
NORTHWEST WISCONSIN

CITY           SKY/WX    TMP DP  RH WIND       PRES   REMARKS
SUPERIOR ARPT  LGT SNOW  34  32  92 E14G20    30.21F WCI  25
ASHLAND        CLOUDY    36  32  85 NE10      30.22R WCI  28
HAYWARD        LGT RAIN  38  33  82 NE12      30.15F WCI  30
SIREN          CLOUDY    46  34  64 NE9       30.13F
CUMBERLAND     SUNNY     46  36  66 NE13      30.10F
RICE LAKE      SUNNY     49  38  64 NE9       30.12F
CHETEK         SUNNY     50  40  67 NE10      30.10F
LADYSMITH      PTSUNNY   49  39  69 NE8       30.14S
EAU CLAIRE     SUNNY     58  40  51 VRB3      30.08F
MENOMONIE      SUNNY     58  40  52 NE3       30.08F
NEW RICHMOND   SUNNY     57  39  51 SE7       30.08F
OSCEOLA        MOSUNNY   54  42  64 NE10      30.11F
$$

WIZ003>005-009-010-017-018-231800-
NORTH CENTRAL WISCONSIN

CITY           SKY/WX    TMP DP  RH WIND       PRES   REMARKS
MANITOWISH WTR CLOUDY    36  35  97 NE5       30.14S WCI  32
ARBOR VITAE    DRIZZLE   39  35  84 NE6       30.13F WCI  35
WOODRUFF       DRIZZLE   39  35  84 NE6       30.13F WCI  35
RHINELANDER    CLOUDY    45  35  68 E9        30.12F
EAGLE RIVER    FLURRIES  36  31  82 NE9       30.14F WCI  29
LAND O LAKES   CLOUDY    36  31  83 NE7       30.16F WCI  30
PHILLIPS       CLOUDY    43  35  74 NE9       30.12S
TOMAHAWK       CLOUDY    43  37  77 E3        30.13S
MEDFORD        SUNNY     55  40  59 E5        30.08F
MERRILL        CLOUDY    51  41  69 NE9G16    30.10F
$$

WIZ029-030-035-036-043>047-231800-
CENTRAL WISCONSIN

CITY           SKY/WX    TMP DP  RH WIND       PRES   REMARKS
WAUSAU         SUNNY     59  39  47 CALM      30.06F
MOSINEE        MOSUNNY   61  39  44 VRB5      30.08F
MARSHFIELD     SUNNY     62  39  42 SW7       30.06F
STEVENS POINT  SUNNY     62  37  38 W9        30.07F
WAUPACA        SUNNY     70  35  28 N9        30.06F
WAUTOMA        SUNNY     69  37  30 W17       30.06F
WISC RAPIDS    SUNNY     67  38  34 NW9G17    30.07F
CAMP DOUGLAS   MOSUNNY   68  36  30 W15       30.06F
$$

WIZ011>013-019>022-031-037>040-048>050-231800-
NORTHEAST WISCONSIN

CITY           SKY/WX    TMP DP  RH WIND       PRES   REMARKS
ANTIGO         CLOUDY    48  39  69 E9        30.10F
SHAWANO        MOSUNNY   53  41  62 E13       30.14F
OCONTO         MOSUNNY   45  36  68 E13G20    30.16F
STURGEON BAY   MOSUNNY   44  33  65 N17       30.17R
GREEN BAY      SUNNY     48  41  76 NE22      30.14S
MANITOWOC      PTSUNNY   44  37  76 NE12G21   30.15R
APPLETON       MOSUNNY   54  37  54 E20       30.08R
CLINTONVILLE   SUNNY     55  41  58 E14G20    30.11S
OSHKOSH        SUNNY     66  39  37 NE6       30.06F
$$

WIZ032>034-041-042-053>061-231800-
SOUTHWEST WISCONSIN

CITY           SKY/WX    TMP DP  RH WIND       PRES   REMARKS
LA CROSSE      SUNNY     69  38  32 W3        30.07F
SPARTA         SUNNY     67  37  33 W7G16     30.07F
VIROQUA        SUNNY     66  33  29 W6        30.09F
BOSCOBEL       SUNNY     70  34  26 W9        30.09F
PRAIRIE DU CHI SUNNY     68  33  27 SW7       30.09F
PLATTEVILLE    SUNNY     66  36  32 W8        30.11F
$$

WIZ056-057-062-063-064-067-068-231800-
SOUTH CENTRAL WISCONSIN

CITY           SKY/WX    TMP DP  RH WIND       PRES   REMARKS
REEDSBURG      SUNNY     67  37  33 NW10      30.07F
BARABOO/DELLS  SUNNY     67  33  28 NW8       30.07F
LONE ROCK      SUNNY     68  38  33 SW8       30.08F
MINERAL POINT  SUNNY     66  32  28 W8        30.10F
MADISON        MOSUNNY   67  34  29 NW9       30.08F
MIDDLETON      SUNNY     68  34  27 W9        30.09F
WATERTOWN      SUNNY     66  37  33 W7G23     30.08F
MONROE         SUNNY     64  32  29 W9        30.10F
JANESVILLE     SUNNY     68  32  26 W12       30.10F
$$

WIZ051-052-058>065-066-070>072-231800-
SOUTHEAST WISCONSIN

CITY           SKY/WX    TMP DP  RH WIND       PRES   REMARKS
MILWAUKEE      SUNNY     69  33  26 W10       30.09F
WAUKESHA       SUNNY     64  34  32 W12       30.11F
MILWAUKEE/TIMM SUNNY     66  30  26 W6        30.09F
RACINE         SUNNY     67  33  28 VRB6      30.11F
KENOSHA        SUNNY     66  35  31 VRB7      30.10F
FOND DU LAC    SUNNY     68  36  30 W8        30.06F
SHEBOYGAN      SUNNY     48  41  76 NE20      30.12R
WEST BEND      SUNNY     66  36  32 W8        30.07F
JUNEAU         SUNNY     65  38  35 SW6       30.09F
$$

LSZ147-162-231800-
LAKE SUPERIOR

STATION/POSITION TIME  TEMP    WIND        PRES    WAVE
                       AIR SEA DIR/SP/G            HT/PER
                 (UTC) (F)     (DEG/KT/KT) (MB)    (FT/S)
DEVILS ISLAND    1700   34      60/ 14/ 16 1024.5F
PORT WING        1700   36      40/ 17/ 19 1022.7
SAXON HARBOR     1640   36      50/ 19/ 22 1022.4F
$$

LMZ867-665-643>646-231800-
LAKE MICHIGAN

STATION/POSITION TIME  TEMP    WIND        PRES    WAVE
                       AIR SEA DIR/SP/G            HT/PER
                 (UTC) (F)     (DEG/KT/KT) (MB)    (FT/S)
CHAMBERS ISLAND  1640   38      20/ 13/ 15 1021.7S
N MID LAKE BUOY  1650   37 37   20/ 14/ 16 1023.1R   2/ 4
NORTHPORT PIER   1640   39     360/ 13/ 15 1022.0R
SISTER BAY       1521   42      10/ 16/ 20   N/A
KEWAUNEE LAKESHO 1648   41      50/ 17/ 22 1020.9R
SHEBOYGAN LAKESH 1700   40      10/ 17/ 19 1020.5R
PORT WASHINGTON  1700           40/ 21     1019.6
MILWAUKEE LAKESH 1650   65     250/  6/  7   N/A
KENOSHA   LAKESH 1700   53     160/  8/ 10 1019.0
$$

TC  - TEMPERATURE IN CELSIUS
VSB - VISIBILITY IN STATUTE MILES
WCI - WIND CHILL INDEX
HX  - HEAT INDEX





USA.gov is the U.S. government's official web portal to all federal, state and local government web resources and services.